Terug naar catalogus

FENGYUN 1C DEB

LostSSO
NORAD 41001·DEBRIS·🇨🇳 China

Gelanceerd May 10, 1999 vanaf Taiyuan Satellite Launch Center

Loading…

Volgende Passages (komende 24 uur)

TLE

VerouderdSource: Space-Track

Epoch: Sep 18, 2022, 21:07 UTC

1 41001U 99025EXF 22261.88028105  .00002788  00000-0  12334-2 0  9996
2 41001  98.9444 307.7250 0040289 191.9509 344.9734 14.23596191442091

Volg FENGYUN 1C DEB in realtime met AllMySat

Download on the App Store